User: anonymous   Login
Location: Newark
(13.6797°N, 8.5297°E)
Time: 19:38:32
(UTC+00:00)
Language:

Tiros 1 - Orbit

View from above orbital plane
View from above orbital plane
View from above satellite
View from above satellite

Ground track
Ground track

The orbit data is extracted from the following two-line orbital elements,

1    29U 60002B   20025.38314543 -.00000132 +00000-0 +11376-4 0  9998
2    29 048.3792 268.5235 0024357 335.3155 024.6589 14.74338313197281
Epoch (UTC): 25 January 2020 09:11:43
Eccentricity: 0.0024357
inclination: 48.3792°
perigee height: 630 km
apogee height: 664 km
right ascension of ascending node: 268.5235°
argument of perigee: 335.3155°
revolutions per day: 14.74338313
mean anomaly at epoch: 24.6589°
orbit number at epoch: 19728

The dashed part of the orbit path shows where the satellite is in the earth's shadow,  

DLR